Lyndonville, VT

2:27 PM EDT on March 29, 2017 (GMT -0400)
Lyndonville

Weather History for KCDA - December, 2012

Change the Weather History Date:

Wednesday, December 26, 2012

  Actual Average (K1V4) Record (K1V4)
Temperature  
Mean Temperature 12 °F -  
Max Temperature 23 °F 26 °F 54 °F (1964)
Min Temperature 2 °F 10 °F -32 °F (1914)
Degree Days  
Heating Degree Days 52    
Moisture  
Dew Point 7 °F    
Average Humidity 74    
Maximum Humidity 85    
Minimum Humidity 58    
Precipitation  
Precipitation 0.00 in - - ()
Sea Level Pressure  
Sea Level Pressure 30.22 in    
Wind  
Wind Speed 1 mph (WSW)    
Max Wind Speed 6 mph    
Max Gust Speed -    
Visibility 10 miles    
Events Snow    
Averages and records for this station are not official NWS values.
T = Trace of Precipitation, MM = Missing Value Source: NWS Daily Summary

Daily Weather History Graph

Daily Weather History Graph

Search for Another Location

Airport or City:

Trip Planner

Search our weather history database for the weather conditions in past years. The results will help you decide how hot, cold, wet, or windy it might be!

Date:

Astronomy

Dec. 26, 2012 Rise Set
Actual Time 7:23 AM EST 4:14 PM EST
Civil Twilight 6:50 AM EST 4:47 PM EST
Nautical Twilight 6:13 AM EST 5:24 PM EST
Astronomical Twilight 5:37 AM EST 6:00 PM EST
Moon 3:06 PM EST (12/26) 5:43 AM EST (12/26)
Length of Visible Light 9h 57m
Length of Day
8h 50m
Waxing Gibbous, 97% of the Moon is Illuminated
Dec 26
Waxing Gibbous
Dec 28
Full
Jan 4
Last Quarter
Jan 11
New
Jan 18
First Quarter

Hourly Weather History & Observations

Time (EST) Temp. Windchill Dew Point Humidity Pressure Visibility Wind Dir Wind Speed Gust Speed Precip Events Conditions
12:15 AM 10.8 °F 4.5 °F 4.6 °F 76% 30.28 in 10.0 mi SW 3.5 mph - N/A   Clear
12:35 AM 8.6 °F 0.1 °F 3.4 °F 79% 30.27 in 10.0 mi SW 4.6 mph - N/A   Clear
12:55 AM 9.3 °F - 4.3 °F 80% 30.27 in 10.0 mi Calm Calm - N/A   Clear
1:15 AM 7.9 °F -0.7 °F 3.2 °F 81% 30.27 in 10.0 mi SW 4.6 mph - N/A   Clear
1:35 AM 7.5 °F -1.1 °F 2.5 °F 80% 30.28 in 5.0 mi SW 4.6 mph - N/A Snow Light Snow
1:55 AM 7.2 °F - 3.0 °F 83% 30.28 in 7.0 mi Calm Calm - N/A Snow Light Snow
2:15 AM 8.4 °F 1.8 °F 3.7 °F 81% 30.28 in 2.5 mi SW 3.5 mph - N/A Snow Light Snow
2:35 AM 5.7 °F -1.3 °F 2.1 °F 85% 30.30 in 7.0 mi SW 3.5 mph - N/A Snow Light Snow
2:55 AM 6.8 °F - 2.5 °F 82% 30.30 in 10.0 mi Calm Calm - N/A Snow Light Snow
3:15 AM 6.4 °F -3.9 °F 1.4 °F 80% 30.32 in 10.0 mi SW 5.8 mph - N/A   Scattered Clouds
3:35 AM 6.6 °F - 2.3 °F 82% 30.32 in 10.0 mi Calm Calm - N/A   Scattered Clouds
4:15 AM 4.1 °F - -0.2 °F 82% 30.33 in 10.0 mi Calm Calm - N/A   Clear
4:35 AM 4.6 °F - -0.0 °F 81% 30.32 in 10.0 mi Calm Calm - N/A   Clear
4:55 AM 4.5 °F - 0.5 °F 84% 30.32 in 10.0 mi Calm Calm - N/A   Clear
5:15 AM 5.2 °F - 1.0 °F 83% 30.31 in 10.0 mi Calm Calm - N/A   Clear
5:35 AM 5.2 °F - 0.7 °F 82% 30.32 in 10.0 mi Calm Calm - N/A   Clear
5:55 AM 2.3 °F - -2.2 °F 81% 30.31 in 10.0 mi Calm Calm - N/A   Clear
6:15 AM 3.4 °F - -0.9 °F 82% 30.30 in 10.0 mi Calm Calm - N/A   Clear
6:35 AM 3.2 °F -4.2 °F -1.3 °F 82% 30.29 in 10.0 mi SW 3.5 mph - N/A   Clear
6:55 AM 3.6 °F - -1.1 °F 81% 30.28 in 10.0 mi Calm Calm - N/A   Clear
7:15 AM 2.3 °F - -2.4 °F 81% 30.30 in 10.0 mi Calm Calm - N/A   Clear
7:35 AM 2.3 °F -5.2 °F -2.4 °F 81% 30.31 in 10.0 mi SW 3.5 mph - N/A   Clear
7:55 AM 2.7 °F - -2.2 °F 80% 30.32 in 10.0 mi Calm Calm - N/A   Clear
8:15 AM 3.4 °F - -1.5 °F 80% 30.32 in 10.0 mi Calm Calm - N/A   Clear
8:35 AM 4.6 °F - -0.4 °F 80% 30.32 in 10.0 mi Calm Calm - N/A   Clear
8:55 AM 6.6 °F - 2.1 °F 82% 30.32 in 10.0 mi Calm Calm - N/A   Clear
9:15 AM 8.4 °F - 3.0 °F 79% 30.32 in 10.0 mi Calm Calm - N/A   Clear
9:35 AM 9.3 °F - 3.4 °F 77% 30.32 in 10.0 mi Calm Calm - N/A   Clear
9:55 AM 10.2 °F - 4.1 °F 76% 30.32 in 10.0 mi Calm Calm - N/A   Clear
10:15 AM 12.6 °F - 5.9 °F 75% 30.31 in 10.0 mi Calm Calm - N/A   Clear
10:35 AM 14.7 °F - 6.8 °F 71% 30.28 in 10.0 mi Calm Calm - N/A   Clear
10:55 AM 16.3 °F - 7.9 °F 69% 30.29 in 10.0 mi Calm Calm - N/A   Clear
11:15 AM 17.4 °F - 7.7 °F 66% 30.27 in 10.0 mi Calm Calm - N/A   Clear
11:35 AM 19.0 °F - 8.4 °F 63% 30.26 in 10.0 mi Calm Calm - N/A   Clear
11:55 AM 19.2 °F - 9.0 °F 64% 30.25 in 10.0 mi Calm Calm - N/A   Clear
12:15 PM 21.2 °F - 9.5 °F 61% 30.24 in 10.0 mi Calm Calm - N/A   Clear
12:35 PM 21.7 °F - 9.7 °F 60% 30.23 in 10.0 mi Calm Calm - N/A   Clear
12:55 PM 22.1 °F - 10.6 °F 61% 30.23 in 10.0 mi Calm Calm - N/A   Clear
1:15 PM 22.8 °F - 10.4 °F 59% 30.22 in 10.0 mi Calm Calm - N/A   Clear
1:35 PM 23.0 °F - 10.6 °F 59% 30.22 in 10.0 mi Calm Calm - N/A   Clear
1:55 PM 23.7 °F - 11.3 °F 59% 30.22 in 10.0 mi Calm Calm - N/A   Clear
2:15 PM 23.9 °F - 11.1 °F 58% 30.21 in 10.0 mi Calm Calm - N/A   Clear
2:35 PM 23.0 °F - 11.3 °F 61% 30.21 in 10.0 mi Calm Calm - N/A   Clear
2:55 PM 23.4 °F - 11.1 °F 60% 30.22 in 10.0 mi Calm Calm - N/A   Clear
3:15 PM 23.0 °F - 11.3 °F 61% 30.22 in 10.0 mi Calm Calm - N/A   Clear
3:35 PM 22.5 °F - 12.2 °F 65% 30.20 in 10.0 mi Calm Calm - N/A   Clear
3:55 PM 22.6 °F - 11.3 °F 62% 30.20 in 10.0 mi Calm Calm - N/A   Clear
4:15 PM 21.9 °F - 11.3 °F 64% 30.19 in 10.0 mi Calm Calm - N/A   Clear
4:35 PM 21.7 °F - 11.3 °F 64% 30.19 in 10.0 mi Calm Calm - N/A   Clear
4:55 PM 21.9 °F - 10.8 °F 62% 30.19 in 10.0 mi Calm Calm - N/A   Clear
5:15 PM 21.4 °F - 11.1 °F 65% 30.19 in 10.0 mi Calm Calm - N/A   Clear
5:35 PM 20.7 °F - 11.1 °F 67% 30.18 in 10.0 mi Calm Calm - N/A   Clear
5:55 PM 19.8 °F 13.2 °F 11.7 °F 71% 30.18 in 10.0 mi NNE 4.6 mph - N/A   Clear
6:15 PM 20.3 °F - 12.4 °F 71% 30.17 in 10.0 mi Calm Calm - N/A   Clear
6:35 PM 19.4 °F - 12.6 °F 75% 30.16 in 10.0 mi Calm Calm - N/A   Clear
6:55 PM 18.9 °F - 12.9 °F 78% 30.15 in 10.0 mi Calm Calm - N/A   Clear
7:15 PM 19.2 °F - 12.7 °F 76% 30.15 in 10.0 mi Calm Calm - N/A   Clear
7:35 PM 19.2 °F - 12.7 °F 76% 30.13 in 10.0 mi Calm Calm - N/A   Clear
7:55 PM 19.4 °F - 13.6 °F 78% 30.12 in 10.0 mi Calm Calm - N/A   Clear
8:15 PM 19.4 °F - 13.5 °F 78% 30.11 in 10.0 mi Calm Calm - N/A   Clear
8:35 PM 18.5 °F 13.3 °F 12.6 °F 78% 30.11 in 10.0 mi West 3.5 mph - N/A   Scattered Clouds
8:55 PM 19.0 °F 13.9 °F 12.4 °F 75% 30.11 in 10.0 mi West 3.5 mph - N/A   Mostly Cloudy
9:15 PM 19.8 °F 13.2 °F 13.6 °F 77% 30.08 in 10.0 mi NNE 4.6 mph - N/A   Overcast
9:35 PM 19.4 °F - 13.8 °F 79% 30.07 in 10.0 mi Calm Calm - N/A   Overcast
9:55 PM 19.4 °F - 13.6 °F 78% 30.06 in 10.0 mi Calm Calm - N/A   Overcast
10:15 PM 19.4 °F - 13.8 °F 79% 30.05 in 10.0 mi Calm Calm - N/A   Overcast
10:35 PM 20.1 °F 13.6 °F 14.4 °F 78% 30.03 in 10.0 mi SW 4.6 mph - N/A   Overcast
10:55 PM 20.1 °F 13.6 °F 14.4 °F 78% 30.01 in 10.0 mi NW 4.6 mph - N/A   Overcast
11:15 PM 21.0 °F - 14.2 °F 75% 30.00 in 10.0 mi Calm Calm - N/A   Overcast
11:35 PM 23.0 °F - 15.1 °F 72% 29.99 in 10.0 mi Calm Calm - N/A   Overcast
11:55 PM 23.9 °F - 14.9 °F 69% 29.98 in 10.0 mi Calm Calm - N/A   Overcast